Year,Month,Day,Hour,Minute,Value (Times are PST for temperature in C)
2018,06,16,00,00,9.30
2018,06,16,00,01,9.30
2018,06,16,00,02,9.30
2018,06,16,00,03,9.30
2018,06,16,00,04,9.30
2018,06,16,00,05,9.30
2018,06,16,00,06,9.30
2018,06,16,00,07,9.30
2018,06,16,00,08,9.30
2018,06,16,00,09,9.30
2018,06,16,00,10,9.30
2018,06,16,00,11,9.30
2018,06,16,00,12,9.30
2018,06,16,00,13,9.40
2018,06,16,00,14,9.40
2018,06,16,00,15,9.40
2018,06,16,00,16,9.40
2018,06,16,00,17,9.40
2018,06,16,00,18,9.40
2018,06,16,00,19,9.40
2018,06,16,00,20,9.40
2018,06,16,00,21,9.40
2018,06,16,00,22,9.40
2018,06,16,00,23,9.40
2018,06,16,00,24,9.30
2018,06,16,00,25,9.40
2018,06,16,00,26,9.30
2018,06,16,00,27,9.30
2018,06,16,00,28,9.30
2018,06,16,00,29,9.30
2018,06,16,00,30,9.30
2018,06,16,00,31,9.30
2018,06,16,00,32,9.30
2018,06,16,00,33,9.30
2018,06,16,00,34,9.30
2018,06,16,00,35,9.30
2018,06,16,00,36,9.30
2018,06,16,00,37,9.30
2018,06,16,00,38,9.30
2018,06,16,00,39,9.30
2018,06,16,00,40,9.30
2018,06,16,00,41,9.20
2018,06,16,00,42,9.20
2018,06,16,00,43,9.20
2018,06,16,00,44,9.20
2018,06,16,00,45,9.20
2018,06,16,00,46,9.20
2018,06,16,00,47,9.10
2018,06,16,00,48,9.10
2018,06,16,00,49,9.10
2018,06,16,00,50,9.10
2018,06,16,00,51,9.10
2018,06,16,00,52,9.10
2018,06,16,00,53,9.10
2018,06,16,00,54,9.10
2018,06,16,00,55,9.10
2018,06,16,00,56,9.10
2018,06,16,00,57,9.10
2018,06,16,00,58,9.10
2018,06,16,00,59,9.10
2018,06,16,01,00,9.10
2018,06,16,01,01,9.10
2018,06,16,01,02,9.10
2018,06,16,01,03,9.10
2018,06,16,01,04,9.20
2018,06,16,01,05,9.20
2018,06,16,01,06,9.20
2018,06,16,01,07,9.20
2018,06,16,01,08,9.10
2018,06,16,01,09,9.10
2018,06,16,01,10,9.10
2018,06,16,01,11,9.10
2018,06,16,01,12,9.10
2018,06,16,01,13,9.10
2018,06,16,01,14,9.10
2018,06,16,01,15,9.10
2018,06,16,01,16,9.10
2018,06,16,01,17,9.10
2018,06,16,01,18,9.00
2018,06,16,01,19,9.00
2018,06,16,01,20,9.00
2018,06,16,01,21,9.00
2018,06,16,01,22,9.00
2018,06,16,01,23,9.00
2018,06,16,01,24,8.90
2018,06,16,01,25,8.90
2018,06,16,01,26,8.90
2018,06,16,01,27,8.90
2018,06,16,01,28,8.90
2018,06,16,01,29,8.90
2018,06,16,01,30,8.90
2018,06,16,01,31,8.90
2018,06,16,01,32,8.90
2018,06,16,01,33,9.00
2018,06,16,01,34,9.00
2018,06,16,01,35,9.00
2018,06,16,01,36,9.00
2018,06,16,01,37,9.00
2018,06,16,01,38,9.10
2018,06,16,01,39,9.00
2018,06,16,01,40,9.00
2018,06,16,01,41,9.00
2018,06,16,01,42,9.00
2018,06,16,01,43,9.10
2018,06,16,01,44,9.10
2018,06,16,01,45,9.10
2018,06,16,01,46,9.10
2018,06,16,01,47,9.00
2018,06,16,01,48,9.00
2018,06,16,01,49,9.00
2018,06,16,01,50,8.90
2018,06,16,01,51,8.90
2018,06,16,01,52,8.90
2018,06,16,01,53,8.90
2018,06,16,01,54,8.90
2018,06,16,01,55,8.90
2018,06,16,01,56,8.90
2018,06,16,01,57,8.90
2018,06,16,01,58,8.90
2018,06,16,01,59,8.90
2018,06,16,02,00,8.90
2018,06,16,02,01,8.90
2018,06,16,02,02,8.80
2018,06,16,02,03,8.80
2018,06,16,02,04,8.80
2018,06,16,02,05,8.80
2018,06,16,02,06,8.80
2018,06,16,02,07,8.80
2018,06,16,02,08,8.80
2018,06,16,02,09,8.80
2018,06,16,02,10,8.80
2018,06,16,02,11,8.80
2018,06,16,02,12,8.80
2018,06,16,02,13,8.70
2018,06,16,02,14,8.70
2018,06,16,02,15,8.70
2018,06,16,02,16,8.70
2018,06,16,02,17,8.70
2018,06,16,02,18,8.70
2018,06,16,02,19,8.70
2018,06,16,02,20,8.60
2018,06,16,02,21,8.60
2018,06,16,02,22,8.60
2018,06,16,02,23,8.60
2018,06,16,02,24,8.60
2018,06,16,02,25,8.60
2018,06,16,02,26,8.60
2018,06,16,02,27,8.60
2018,06,16,02,28,8.60
2018,06,16,02,29,8.60
2018,06,16,02,30,8.60
2018,06,16,02,31,8.50
2018,06,16,02,32,8.50
2018,06,16,02,33,8.50
2018,06,16,02,34,8.50
2018,06,16,02,35,8.50
2018,06,16,02,36,8.50
2018,06,16,02,37,8.50
2018,06,16,02,38,8.50
2018,06,16,02,39,8.50
2018,06,16,02,40,8.50
2018,06,16,02,41,8.50
2018,06,16,02,42,8.50
2018,06,16,02,43,8.50
2018,06,16,02,44,8.60
2018,06,16,02,45,8.60
2018,06,16,02,46,8.60
2018,06,16,02,47,8.60
2018,06,16,02,48,8.60
2018,06,16,02,49,8.60
2018,06,16,02,50,8.60
2018,06,16,02,51,8.50
2018,06,16,02,52,8.50
2018,06,16,02,53,8.50
2018,06,16,02,54,8.50
2018,06,16,02,55,8.50
2018,06,16,02,56,8.50
2018,06,16,02,57,8.60
2018,06,16,02,58,8.60
2018,06,16,02,59,8.60
2018,06,16,03,00,8.60
2018,06,16,03,01,8.60
2018,06,16,03,02,8.60
2018,06,16,03,03,8.60
2018,06,16,03,04,8.60
2018,06,16,03,05,8.60
2018,06,16,03,06,8.60
2018,06,16,03,07,8.60
2018,06,16,03,08,8.60
2018,06,16,03,09,8.60
2018,06,16,03,10,8.60
2018,06,16,03,11,8.60
2018,06,16,03,12,8.60
2018,06,16,03,13,8.60
2018,06,16,03,14,8.60
2018,06,16,03,15,8.50
2018,06,16,03,16,8.50
2018,06,16,03,17,8.50
2018,06,16,03,18,8.50
2018,06,16,03,19,8.40
2018,06,16,03,20,8.40
2018,06,16,03,21,8.40
2018,06,16,03,22,8.40
2018,06,16,03,23,8.40
2018,06,16,03,24,8.40
2018,06,16,03,25,8.40
2018,06,16,03,26,8.40
2018,06,16,03,27,8.30
2018,06,16,03,28,8.30
2018,06,16,03,29,8.30
2018,06,16,03,30,8.40
2018,06,16,03,31,8.40
2018,06,16,03,32,8.40
2018,06,16,03,33,8.40
2018,06,16,03,34,8.40
2018,06,16,03,35,8.40
2018,06,16,03,36,8.40
2018,06,16,03,37,8.40
2018,06,16,03,38,8.30
2018,06,16,03,39,8.30
2018,06,16,03,40,8.30
2018,06,16,03,41,8.30
2018,06,16,03,42,8.30
2018,06,16,03,43,8.30
2018,06,16,03,44,8.30
2018,06,16,03,45,8.30
2018,06,16,03,46,8.30
2018,06,16,03,47,8.30
2018,06,16,03,48,8.30
2018,06,16,03,49,8.20
2018,06,16,03,50,8.20
2018,06,16,03,51,8.20
2018,06,16,03,52,8.20
2018,06,16,03,53,8.20
2018,06,16,03,54,8.20
2018,06,16,03,55,8.20
2018,06,16,03,56,8.20
2018,06,16,03,57,8.20
2018,06,16,03,58,8.20
2018,06,16,03,59,8.10
2018,06,16,04,00,8.20
2018,06,16,04,01,8.10
2018,06,16,04,02,8.10
2018,06,16,04,03,8.10
2018,06,16,04,04,8.10
2018,06,16,04,05,8.10
2018,06,16,04,06,8.10
2018,06,16,04,07,8.10
2018,06,16,04,08,8.10
2018,06,16,04,09,8.10
2018,06,16,04,10,8.10
2018,06,16,04,11,8.10
2018,06,16,04,12,8.10
2018,06,16,04,13,8.10
2018,06,16,04,14,8.00
2018,06,16,04,15,8.10
2018,06,16,04,16,8.00
2018,06,16,04,17,8.00
2018,06,16,04,18,8.00
2018,06,16,04,19,8.10
2018,06,16,04,20,8.10
2018,06,16,04,21,8.10
2018,06,16,04,22,8.10
2018,06,16,04,23,8.10
2018,06,16,04,24,8.10
2018,06,16,04,25,8.10
2018,06,16,04,26,8.10
2018,06,16,04,27,8.00
2018,06,16,04,28,8.00
2018,06,16,04,29,8.00
2018,06,16,04,30,8.00
2018,06,16,04,31,8.10
2018,06,16,04,32,8.10
2018,06,16,04,33,8.10
2018,06,16,04,34,8.10
2018,06,16,04,35,8.10
2018,06,16,04,36,8.10
2018,06,16,04,37,8.10
2018,06,16,04,38,8.10
2018,06,16,04,39,8.10
2018,06,16,04,40,8.10
2018,06,16,04,41,8.10
2018,06,16,04,42,8.10
2018,06,16,04,43,8.10
2018,06,16,04,44,8.10
2018,06,16,04,45,8.10
2018,06,16,04,46,8.10
2018,06,16,04,47,8.10
2018,06,16,04,48,8.10
2018,06,16,04,49,8.10
2018,06,16,04,50,8.10
2018,06,16,04,51,8.00
2018,06,16,04,52,8.00
2018,06,16,04,53,8.00
2018,06,16,04,54,8.00
2018,06,16,04,55,8.00
2018,06,16,04,56,8.00
2018,06,16,04,57,7.90
2018,06,16,04,58,7.90
2018,06,16,04,59,7.90
2018,06,16,05,00,8.00
2018,06,16,05,01,8.00
2018,06,16,05,02,8.10
2018,06,16,05,03,8.10
2018,06,16,05,04,8.10
2018,06,16,05,05,8.10
2018,06,16,05,06,8.10
2018,06,16,05,07,8.10
2018,06,16,05,08,8.10
2018,06,16,05,09,8.10
2018,06,16,05,10,8.00
2018,06,16,05,11,8.00
2018,06,16,05,12,7.90
2018,06,16,05,13,7.90
2018,06,16,05,14,7.90
2018,06,16,05,15,7.90
2018,06,16,05,16,7.90
2018,06,16,05,17,7.90
2018,06,16,05,18,7.90
2018,06,16,05,19,7.90
2018,06,16,05,20,7.90
2018,06,16,05,21,7.90
2018,06,16,05,22,7.90
2018,06,16,05,23,7.90
2018,06,16,05,24,7.90
2018,06,16,05,25,7.90
2018,06,16,05,26,8.00
2018,06,16,05,27,8.00
2018,06,16,05,28,8.00
2018,06,16,05,29,8.00
2018,06,16,05,30,8.10
2018,06,16,05,31,8.10
2018,06,16,05,32,8.00
2018,06,16,05,33,8.10
2018,06,16,05,34,8.10
2018,06,16,05,35,8.10
2018,06,16,05,36,8.10
2018,06,16,05,37,8.10
2018,06,16,05,38,8.10
2018,06,16,05,39,8.10
2018,06,16,05,40,8.10
2018,06,16,05,41,8.10
2018,06,16,05,42,8.10
2018,06,16,05,43,8.10
2018,06,16,05,44,8.10
2018,06,16,05,45,8.10
2018,06,16,05,46,8.00
2018,06,16,05,47,8.00
2018,06,16,05,48,8.00
2018,06,16,05,49,8.00
2018,06,16,05,50,7.90
2018,06,16,05,51,7.90
2018,06,16,05,52,7.90
2018,06,16,05,53,7.90
2018,06,16,05,54,7.90
2018,06,16,05,55,7.90
2018,06,16,05,56,7.90
2018,06,16,05,57,8.00
2018,06,16,05,58,8.00
2018,06,16,05,59,8.10
2018,06,16,06,00,8.10
2018,06,16,06,01,8.20
2018,06,16,06,02,8.20
2018,06,16,06,03,8.20
2018,06,16,06,04,8.20
2018,06,16,06,05,8.20
2018,06,16,06,06,8.20
2018,06,16,06,07,8.20
2018,06,16,06,08,8.20
2018,06,16,06,09,8.20
2018,06,16,06,10,8.20
2018,06,16,06,11,8.20
2018,06,16,06,12,8.20
2018,06,16,06,13,8.20
2018,06,16,06,14,8.20
2018,06,16,06,15,8.30
2018,06,16,06,16,8.30
2018,06,16,06,17,8.40
2018,06,16,06,18,8.40
2018,06,16,06,19,8.40
2018,06,16,06,20,8.40
2018,06,16,06,21,8.40
2018,06,16,06,22,8.40
2018,06,16,06,23,8.40
2018,06,16,06,24,8.40
2018,06,16,06,25,8.40
2018,06,16,06,26,8.50
2018,06,16,06,27,8.50
2018,06,16,06,28,8.50
2018,06,16,06,29,8.50
2018,06,16,06,30,8.60
2018,06,16,06,31,8.60
2018,06,16,06,32,8.60
2018,06,16,06,33,8.60
2018,06,16,06,34,8.60
2018,06,16,06,35,8.60
2018,06,16,06,36,8.70
2018,06,16,06,37,8.70
2018,06,16,06,38,8.80
2018,06,16,06,39,8.80
2018,06,16,06,40,8.80
2018,06,16,06,41,8.90
2018,06,16,06,42,8.90
2018,06,16,06,43,8.90
2018,06,16,06,44,8.90
2018,06,16,06,45,9.00
2018,06,16,06,46,9.00
2018,06,16,06,47,9.10
2018,06,16,06,48,9.10
2018,06,16,06,49,9.10
2018,06,16,06,50,9.10
2018,06,16,06,51,9.20
2018,06,16,06,52,9.20
2018,06,16,06,53,9.20
2018,06,16,06,54,9.30
2018,06,16,06,55,9.30
2018,06,16,06,56,9.40
2018,06,16,06,57,9.40
2018,06,16,06,58,9.50
2018,06,16,06,59,9.50
2018,06,16,07,00,9.60
2018,06,16,07,01,9.70
2018,06,16,07,02,9.70
2018,06,16,07,03,9.70
2018,06,16,07,04,9.70
2018,06,16,07,05,9.80
2018,06,16,07,06,9.80
2018,06,16,07,07,9.80
2018,06,16,07,08,9.90
2018,06,16,07,09,9.90
2018,06,16,07,10,9.90
2018,06,16,07,11,10.00
2018,06,16,07,12,10.10
2018,06,16,07,13,10.10
2018,06,16,07,14,10.20
2018,06,16,07,15,10.20
2018,06,16,07,16,10.30
2018,06,16,07,17,10.30
2018,06,16,07,18,10.40
2018,06,16,07,19,10.40
2018,06,16,07,20,10.40
2018,06,16,07,21,10.50
2018,06,16,07,22,10.60
2018,06,16,07,23,10.60
2018,06,16,07,24,10.70
2018,06,16,07,25,10.80
2018,06,16,07,26,10.80
2018,06,16,07,27,10.90
2018,06,16,07,28,11.00
2018,06,16,07,29,11.00
2018,06,16,07,30,11.10
2018,06,16,07,31,11.20
2018,06,16,07,32,11.20
2018,06,16,07,33,11.30
2018,06,16,07,34,11.30
2018,06,16,07,35,11.40
2018,06,16,07,36,11.50
2018,06,16,07,37,11.60
2018,06,16,07,38,11.60
2018,06,16,07,39,11.70
2018,06,16,07,40,11.70
2018,06,16,07,41,11.80
2018,06,16,07,42,11.80
2018,06,16,07,43,11.90
2018,06,16,07,44,11.90
2018,06,16,07,45,12.00
2018,06,16,07,46,12.00
2018,06,16,07,47,12.10
2018,06,16,07,48,12.10
2018,06,16,07,49,12.20
2018,06,16,07,50,12.30
2018,06,16,07,51,12.30
2018,06,16,07,52,12.40
2018,06,16,07,53,12.50
2018,06,16,07,54,12.60
2018,06,16,07,55,12.70
2018,06,16,07,56,12.80
2018,06,16,07,57,12.90
2018,06,16,07,58,13.00
2018,06,16,07,59,13.10
2018,06,16,08,00,13.10
2018,06,16,08,01,13.10
2018,06,16,08,02,13.10
2018,06,16,08,03,13.20
2018,06,16,08,04,13.20
2018,06,16,08,05,13.20
2018,06,16,08,06,13.30
2018,06,16,08,07,13.40
2018,06,16,08,08,13.40
2018,06,16,08,09,13.50
2018,06,16,08,10,13.50
2018,06,16,08,11,13.60
2018,06,16,08,12,13.60
2018,06,16,08,13,13.60
2018,06,16,08,14,13.70
2018,06,16,08,15,13.70
2018,06,16,08,16,13.70
2018,06,16,08,17,13.70
2018,06,16,08,18,13.70
2018,06,16,08,19,13.70
2018,06,16,08,20,13.70
2018,06,16,08,21,13.70
2018,06,16,08,22,13.70
2018,06,16,08,23,13.70
2018,06,16,08,24,13.80
2018,06,16,08,25,13.90
2018,06,16,08,26,14.00
2018,06,16,08,27,14.10
2018,06,16,08,28,14.10
2018,06,16,08,29,14.20
2018,06,16,08,30,14.30
2018,06,16,08,31,14.30
2018,06,16,08,32,14.30
2018,06,16,08,33,14.40
2018,06,16,08,34,14.40
2018,06,16,08,35,14.40
2018,06,16,08,36,14.40
2018,06,16,08,37,14.40
2018,06,16,08,38,14.50
2018,06,16,08,39,14.50
2018,06,16,08,40,14.50
2018,06,16,08,41,14.50
2018,06,16,08,42,14.60
2018,06,16,08,43,14.60
2018,06,16,08,44,14.50
2018,06,16,08,45,14.50
2018,06,16,08,46,14.40
2018,06,16,08,47,14.40
2018,06,16,08,48,14.40
2018,06,16,08,49,14.40
2018,06,16,08,50,14.50
2018,06,16,08,51,14.50
2018,06,16,08,52,14.60
2018,06,16,08,53,14.70
2018,06,16,08,54,14.80
2018,06,16,08,55,14.80
2018,06,16,08,56,14.80
2018,06,16,08,57,14.80
2018,06,16,08,58,14.80
2018,06,16,08,59,14.80
2018,06,16,09,00,14.80
2018,06,16,09,01,14.80
2018,06,16,09,02,14.70
2018,06,16,09,03,14.70
2018,06,16,09,04,14.70
2018,06,16,09,05,14.70
2018,06,16,09,06,14.80
2018,06,16,09,07,14.70
2018,06,16,09,08,14.70
2018,06,16,09,09,14.60
2018,06,16,09,10,14.50
2018,06,16,09,11,14.40
2018,06,16,09,12,14.40
2018,06,16,09,13,14.40
2018,06,16,09,14,14.30
2018,06,16,09,15,14.30
2018,06,16,09,16,14.30
2018,06,16,09,17,14.30
2018,06,16,09,18,14.30
2018,06,16,09,19,14.30
2018,06,16,09,20,14.20
2018,06,16,09,21,14.20
2018,06,16,09,22,14.20
2018,06,16,09,23,14.30
2018,06,16,09,24,14.30
2018,06,16,09,25,14.30
2018,06,16,09,26,14.40
2018,06,16,09,27,14.30
2018,06,16,09,28,14.30
2018,06,16,09,29,14.30
2018,06,16,09,30,14.30
2018,06,16,09,31,14.40
2018,06,16,09,32,14.40
2018,06,16,09,33,14.40
2018,06,16,09,34,14.40
2018,06,16,09,35,14.40
2018,06,16,09,36,14.40
2018,06,16,09,37,14.40
2018,06,16,09,38,14.40
2018,06,16,09,39,14.50
2018,06,16,09,40,14.60
2018,06,16,09,41,14.60
2018,06,16,09,42,14.60
2018,06,16,09,43,14.60
2018,06,16,09,44,14.60
2018,06,16,09,45,14.60
2018,06,16,09,46,14.70
2018,06,16,09,47,14.70
2018,06,16,09,48,14.70
2018,06,16,09,49,14.70
2018,06,16,09,50,14.80
2018,06,16,09,51,14.90
2018,06,16,09,52,15.00
2018,06,16,09,53,15.00
2018,06,16,09,54,14.90
2018,06,16,09,55,14.90
2018,06,16,09,56,14.80
2018,06,16,09,57,14.80
2018,06,16,09,58,14.80
2018,06,16,09,59,14.80
2018,06,16,10,00,14.90
2018,06,16,10,01,14.90
2018,06,16,10,02,14.90
2018,06,16,10,03,15.00
2018,06,16,10,04,15.00
2018,06,16,10,05,15.10
2018,06,16,10,06,15.10
2018,06,16,10,07,15.20
2018,06,16,10,08,15.20
2018,06,16,10,09,15.20
2018,06,16,10,10,15.20
2018,06,16,10,11,15.20
2018,06,16,10,12,15.20
2018,06,16,10,13,15.20
2018,06,16,10,14,15.20
2018,06,16,10,15,15.20
2018,06,16,10,16,15.20
2018,06,16,10,17,15.30
2018,06,16,10,18,15.40
2018,06,16,10,19,15.40
2018,06,16,10,20,15.40
2018,06,16,10,21,15.40
2018,06,16,10,22,15.40
2018,06,16,10,23,15.50
2018,06,16,10,24,15.50
2018,06,16,10,25,15.60
2018,06,16,10,26,15.70
2018,06,16,10,27,15.70
2018,06,16,10,28,15.80
2018,06,16,10,29,15.80
2018,06,16,10,30,15.80
2018,06,16,10,31,15.70
2018,06,16,10,32,15.70
2018,06,16,10,33,15.60
2018,06,16,10,34,15.50
2018,06,16,10,35,15.50
2018,06,16,10,36,15.60
2018,06,16,10,37,15.60
2018,06,16,10,38,15.60
2018,06,16,10,39,15.70
2018,06,16,10,40,15.70
2018,06,16,10,41,15.70
2018,06,16,10,42,15.70
2018,06,16,10,43,15.70
2018,06,16,10,44,15.60
2018,06,16,10,45,15.60
2018,06,16,10,46,15.60
2018,06,16,10,47,15.70
2018,06,16,10,48,15.80
2018,06,16,10,49,15.80
2018,06,16,10,50,15.90
2018,06,16,10,51,15.90
2018,06,16,10,52,15.90
2018,06,16,10,53,16.00
2018,06,16,10,54,16.10
2018,06,16,10,55,16.10
2018,06,16,10,56,16.10
2018,06,16,10,57,16.10
2018,06,16,10,58,16.20
2018,06,16,10,59,16.20
2018,06,16,11,00,16.20
2018,06,16,11,01,16.20
2018,06,16,11,02,16.10
2018,06,16,11,03,16.10
2018,06,16,11,04,16.00
2018,06,16,11,05,16.00
2018,06,16,11,06,15.90
2018,06,16,11,07,15.80
2018,06,16,11,08,15.80
2018,06,16,11,09,15.80
2018,06,16,11,10,15.80
2018,06,16,11,11,15.90
2018,06,16,11,12,16.00
2018,06,16,11,13,16.20
2018,06,16,11,14,16.20
2018,06,16,11,15,16.30
2018,06,16,11,16,16.30
2018,06,16,11,17,16.30
2018,06,16,11,18,16.30
2018,06,16,11,19,16.40
2018,06,16,11,20,16.50
2018,06,16,11,21,16.50
2018,06,16,11,22,16.40
2018,06,16,11,23,16.40
2018,06,16,11,24,16.30
2018,06,16,11,25,16.30
2018,06,16,11,26,16.20
2018,06,16,11,27,16.20
2018,06,16,11,28,16.20
2018,06,16,11,29,16.20
2018,06,16,11,30,16.30
2018,06,16,11,31,16.50
2018,06,16,11,32,16.50
2018,06,16,11,33,16.60
2018,06,16,11,34,16.60
2018,06,16,11,35,16.70
2018,06,16,11,36,16.80
2018,06,16,11,37,16.90
2018,06,16,11,38,16.90
2018,06,16,11,39,17.00
2018,06,16,11,40,17.10
2018,06,16,11,41,17.20
2018,06,16,11,42,17.30
2018,06,16,11,43,17.40
2018,06,16,11,44,17.50
2018,06,16,11,45,17.60
2018,06,16,11,46,17.60
2018,06,16,11,47,17.70
2018,06,16,11,48,17.80
2018,06,16,11,49,17.90
2018,06,16,11,50,17.90
2018,06,16,11,51,17.80
2018,06,16,11,52,17.80
2018,06,16,11,53,17.70
2018,06,16,11,54,17.60
2018,06,16,11,55,17.60
2018,06,16,11,56,17.50
2018,06,16,11,57,17.40
2018,06,16,11,58,17.30
2018,06,16,11,59,17.20
2018,06,16,12,00,17.20
2018,06,16,12,01,17.10
2018,06,16,12,02,17.10
2018,06,16,12,03,17.00
2018,06,16,12,04,17.00
2018,06,16,12,05,17.00
2018,06,16,12,06,16.90
2018,06,16,12,07,16.90
2018,06,16,12,08,16.90
2018,06,16,12,09,16.90
2018,06,16,12,10,16.90
2018,06,16,12,11,16.90
2018,06,16,12,12,16.90
2018,06,16,12,13,16.90
2018,06,16,12,14,16.90
2018,06,16,12,15,16.90
2018,06,16,12,16,16.90
2018,06,16,12,17,16.90
2018,06,16,12,18,16.90
2018,06,16,12,19,16.90
2018,06,16,12,20,17.00
2018,06,16,12,21,17.00
2018,06,16,12,22,17.00
2018,06,16,12,23,17.00
2018,06,16,12,24,17.00
2018,06,16,12,25,17.00
2018,06,16,12,26,17.10
2018,06,16,12,27,17.10
2018,06,16,12,28,17.20
2018,06,16,12,29,17.20
2018,06,16,12,30,17.20
2018,06,16,12,31,17.30
2018,06,16,12,32,17.30
2018,06,16,12,33,17.30
2018,06,16,12,34,17.30
2018,06,16,12,35,17.30
2018,06,16,12,36,17.30
2018,06,16,12,37,17.20
2018,06,16,12,38,17.20
2018,06,16,12,39,17.20
2018,06,16,12,40,17.20
2018,06,16,12,41,17.20
2018,06,16,12,42,17.30
2018,06,16,12,43,17.30
2018,06,16,12,44,17.30
2018,06,16,12,45,17.30
2018,06,16,12,46,17.30
2018,06,16,12,47,17.30
2018,06,16,12,48,17.40
2018,06,16,12,49,17.40
2018,06,16,12,50,17.40
2018,06,16,12,51,17.50
2018,06,16,12,52,17.50
2018,06,16,12,53,17.60
2018,06,16,12,54,17.60
2018,06,16,12,55,17.60
2018,06,16,12,56,17.50
2018,06,16,12,57,17.40
2018,06,16,12,58,17.40
2018,06,16,12,59,17.40
2018,06,16,13,00,17.50
2018,06,16,13,01,17.60
2018,06,16,13,02,17.70
2018,06,16,13,03,17.90
2018,06,16,13,04,18.10
2018,06,16,13,05,18.30
2018,06,16,13,06,18.40
2018,06,16,13,07,18.50
2018,06,16,13,08,18.50
2018,06,16,13,09,18.60
2018,06,16,13,10,18.60
2018,06,16,13,11,18.60
2018,06,16,13,12,18.60
2018,06,16,13,13,18.60
2018,06,16,13,14,18.50
2018,06,16,13,15,18.40
2018,06,16,13,16,18.30
2018,06,16,13,17,18.20
2018,06,16,13,18,18.10
2018,06,16,13,19,18.10
2018,06,16,13,20,18.20
2018,06,16,13,21,18.10
2018,06,16,13,22,18.10
2018,06,16,13,23,18.10
2018,06,16,13,24,18.10
2018,06,16,13,25,18.10
2018,06,16,13,26,18.10
2018,06,16,13,27,18.20
2018,06,16,13,28,18.20
2018,06,16,13,29,18.20
2018,06,16,13,30,18.10
2018,06,16,13,31,18.10
2018,06,16,13,32,18.20
2018,06,16,13,33,18.20
2018,06,16,13,34,18.20
2018,06,16,13,35,18.10
2018,06,16,13,36,18.10
2018,06,16,13,37,18.10
2018,06,16,13,38,18.10
2018,06,16,13,39,18.10
2018,06,16,13,40,18.10
2018,06,16,13,41,18.10
2018,06,16,13,42,18.10
2018,06,16,13,43,18.00
2018,06,16,13,44,17.90
2018,06,16,13,45,17.80
2018,06,16,13,46,17.80
2018,06,16,13,47,17.80
2018,06,16,13,48,17.80
2018,06,16,13,49,17.70
2018,06,16,13,50,17.60
2018,06,16,13,51,17.60
2018,06,16,13,52,17.60
2018,06,16,13,53,17.50
2018,06,16,13,54,17.50
2018,06,16,13,55,17.60
2018,06,16,13,56,17.60
2018,06,16,13,57,17.70
2018,06,16,13,58,17.70
2018,06,16,13,59,17.80
2018,06,16,14,00,17.80
2018,06,16,14,01,17.80
2018,06,16,14,02,17.80
2018,06,16,14,03,17.80
2018,06,16,14,04,17.80
2018,06,16,14,05,17.70
2018,06,16,14,06,17.60
2018,06,16,14,07,17.50
2018,06,16,14,08,17.40
2018,06,16,14,09,17.30
2018,06,16,14,10,17.30
2018,06,16,14,11,17.30
2018,06,16,14,12,17.30
2018,06,16,14,13,17.40
2018,06,16,14,14,17.40
2018,06,16,14,15,17.40
2018,06,16,14,16,17.40
2018,06,16,14,17,17.50
2018,06,16,14,18,17.50
2018,06,16,14,19,17.60
2018,06,16,14,20,17.70
2018,06,16,14,21,17.80
2018,06,16,14,22,17.90
2018,06,16,14,23,17.90
2018,06,16,14,24,17.90
2018,06,16,14,25,17.90
2018,06,16,14,26,18.00
2018,06,16,14,27,18.00
2018,06,16,14,28,18.10
2018,06,16,14,29,18.10
2018,06,16,14,30,18.20
2018,06,16,14,31,18.20
2018,06,16,14,32,18.10
2018,06,16,14,33,18.10
2018,06,16,14,34,18.00
2018,06,16,14,35,18.00
2018,06,16,14,36,17.90
2018,06,16,14,37,17.80
2018,06,16,14,38,17.80
2018,06,16,14,39,17.80
2018,06,16,14,40,17.80
2018,06,16,14,41,17.80
2018,06,16,14,42,17.90
2018,06,16,14,43,17.90
2018,06,16,14,44,18.00
2018,06,16,14,45,18.10
2018,06,16,14,46,18.10
2018,06,16,14,47,18.10
2018,06,16,14,48,18.10
2018,06,16,14,49,18.10
2018,06,16,14,50,18.20
2018,06,16,14,51,18.20
2018,06,16,14,52,18.30
2018,06,16,14,53,18.40
2018,06,16,14,54,18.50
2018,06,16,14,55,18.50
2018,06,16,14,56,18.60
2018,06,16,14,57,18.70
2018,06,16,14,58,18.70
2018,06,16,14,59,18.70
2018,06,16,15,00,18.70
2018,06,16,15,01,18.80
2018,06,16,15,02,18.80
2018,06,16,15,03,18.80
2018,06,16,15,04,18.80
2018,06,16,15,05,18.80
2018,06,16,15,06,18.80
2018,06,16,15,07,18.80
2018,06,16,15,08,18.90
2018,06,16,15,09,18.90
2018,06,16,15,10,18.90
2018,06,16,15,11,18.90
2018,06,16,15,12,18.90
2018,06,16,15,13,19.00
2018,06,16,15,14,19.00
2018,06,16,15,15,19.00
2018,06,16,15,16,19.10
2018,06,16,15,17,19.10
2018,06,16,15,18,19.10
2018,06,16,15,19,19.10
2018,06,16,15,20,19.00
2018,06,16,15,21,19.00
2018,06,16,15,22,18.90
2018,06,16,15,23,18.90
2018,06,16,15,24,18.90
2018,06,16,15,25,18.80
2018,06,16,15,26,18.80
2018,06,16,15,27,18.70
2018,06,16,15,28,18.70
2018,06,16,15,29,18.70
2018,06,16,15,30,18.70
2018,06,16,15,31,18.70
2018,06,16,15,32,18.80
2018,06,16,15,33,18.80
2018,06,16,15,34,18.90
2018,06,16,15,35,18.90
2018,06,16,15,36,18.90
2018,06,16,15,37,18.90
2018,06,16,15,38,18.90
2018,06,16,15,39,18.80
2018,06,16,15,40,18.80
2018,06,16,15,41,18.80
2018,06,16,15,42,18.70
2018,06,16,15,43,18.70
2018,06,16,15,44,18.70
2018,06,16,15,45,18.60
2018,06,16,15,46,18.50
2018,06,16,15,47,18.50
2018,06,16,15,48,18.50
2018,06,16,15,49,18.50
2018,06,16,15,50,18.40
2018,06,16,15,51,18.40
2018,06,16,15,52,18.30
2018,06,16,15,53,18.20
2018,06,16,15,54,18.20
2018,06,16,15,55,18.20
2018,06,16,15,56,18.10
2018,06,16,15,57,18.10
2018,06,16,15,58,18.10
2018,06,16,15,59,18.10
2018,06,16,16,00,18.10
2018,06,16,16,01,18.10
2018,06,16,16,02,18.10
2018,06,16,16,03,18.10
2018,06,16,16,04,18.20
2018,06,16,16,05,18.30
2018,06,16,16,06,18.40
2018,06,16,16,07,18.50
2018,06,16,16,08,18.50
2018,06,16,16,09,18.60
2018,06,16,16,10,18.60
2018,06,16,16,11,18.60
2018,06,16,16,12,18.50
2018,06,16,16,13,18.50
2018,06,16,16,14,18.50
2018,06,16,16,15,18.50
2018,06,16,16,16,18.60
2018,06,16,16,17,18.60
2018,06,16,16,18,18.70
2018,06,16,16,19,18.70
2018,06,16,16,20,18.90
2018,06,16,16,21,18.90
2018,06,16,16,22,19.00
2018,06,16,16,23,19.10
2018,06,16,16,24,19.20
2018,06,16,16,25,19.30
2018,06,16,16,26,19.30
2018,06,16,16,27,19.40
2018,06,16,16,28,19.50
2018,06,16,16,29,19.60
2018,06,16,16,30,19.60
2018,06,16,16,31,19.70
2018,06,16,16,32,19.70
2018,06,16,16,33,19.70
2018,06,16,16,34,19.80
2018,06,16,16,35,19.80
2018,06,16,16,36,19.80
2018,06,16,16,37,19.80
2018,06,16,16,38,19.90
2018,06,16,16,39,19.90
2018,06,16,16,40,19.90
2018,06,16,16,41,20.00
2018,06,16,16,42,20.10
2018,06,16,16,43,20.10
2018,06,16,16,44,20.20
2018,06,16,16,45,20.30
2018,06,16,16,46,20.30
2018,06,16,16,47,20.30
2018,06,16,16,48,20.30
2018,06,16,16,49,20.40
2018,06,16,16,50,20.50
2018,06,16,16,51,20.50
2018,06,16,16,52,20.60
2018,06,16,16,53,20.70
2018,06,16,16,54,20.70
2018,06,16,16,55,20.80
2018,06,16,16,56,20.80
2018,06,16,16,57,20.90
2018,06,16,16,58,20.90
2018,06,16,16,59,20.90
2018,06,16,17,00,21.00
2018,06,16,17,01,21.10
2018,06,16,17,02,21.10
2018,06,16,17,03,21.20
2018,06,16,17,04,21.30
2018,06,16,17,05,21.40
2018,06,16,17,06,21.50
2018,06,16,17,07,21.50
2018,06,16,17,08,21.50
2018,06,16,17,09,21.50
2018,06,16,17,10,21.50
2018,06,16,17,11,21.60
2018,06,16,17,12,21.50
2018,06,16,17,13,21.40
2018,06,16,17,14,21.30
2018,06,16,17,15,21.20
2018,06,16,17,16,21.10
2018,06,16,17,17,21.10
2018,06,16,17,18,21.10
2018,06,16,17,19,21.10
2018,06,16,17,20,21.20
2018,06,16,17,21,21.20
2018,06,16,17,22,21.30
2018,06,16,17,23,21.30
2018,06,16,17,24,21.40
2018,06,16,17,25,21.50
2018,06,16,17,26,21.60
2018,06,16,17,27,21.60
2018,06,16,17,28,21.70
2018,06,16,17,29,21.80
2018,06,16,17,30,21.80
2018,06,16,17,31,21.90
2018,06,16,17,32,22.00
2018,06,16,17,33,22.10
2018,06,16,17,34,22.10
2018,06,16,17,35,22.20
2018,06,16,17,36,22.20
2018,06,16,17,37,22.20
2018,06,16,17,38,22.20